Location: Sungai Dangang
(2.7500°N, 113.8333°E)
Time: 05:36:05
(UTC+00:00)

Cosmos 1386 Rocket - Pass Details

Date: 16 May 2021
Orbit: 930 x 1005 km, 83.0° (Epoch: 16 June)

Event Time Altitude Azimuth Distance (km) Brightness Sun altitude
Rises 12:24:39 0° 358° (N) 3,616 7.8 -27.9°
Reaches altitude 10° 12:27:07 10° 359° (N) 2,682 7.1 -28.5°
Enters shadow 12:32:46 75° 26° (NNE) 1,003 4.4 -29.8°
